Home   Weather   Wells   Past weeks

Flag for USA Past Weather in Wells, Maine, USA — Yesterday and Last 2 Weeks

Now
41 °F

Fog.


Feels Like: 41 °F
Forecast: 41 / 51 °F
Wind: No wind

Location: Sanford Municipal

Current Time: Feb 20, 2018 at 6:13:31 am

Latest Report: Feb 20, 2018 at 5:37 am


Visibility: 1 mi

Pressure: 30.20 "Hg

Humidity: 100%

Dew Point: 41 °F

Location of WellsLocation

Past Weather in Wells — Graph

°F

Wells Temperature Yesterday

Maximum temperature yesterday: 45 °F (at 2:56 pm)
Minimum temperature yesterday: 7 °F (at 4:56 am)
Average temperature yesterday: 31 °F

High & Low Weather Summary for the Past Weeks

 TemperatureHumidityPressure
High49 °F (Feb 15, 12:56 pm)100% (Feb 5, 5:37 am)30.86 "Hg (Feb 5, 5:37 am)
Low-1 °F (Feb 9, 2:56 am)33% (Feb 17, 11:56 am)29.49 "Hg (Feb 5, 5:37 am)
Average30 °F78%30.17 "Hg
* Reported Feb 5 5:37 am — Feb 20 5:19 am, Wells. Weather by CustomWeather, © 2018

Note: Actual official high and low records may vary slightly from our data, if they occured in-between our weather recording intervals... More about our weather records

Advertising

Wells Weather History for the Previous 24 Hours

Scroll right to see more
 ConditionsComfort  
Time TempWeatherWind HumidityBarometerVisibility
5:19 am
Tue, Feb 20
43 °FLight rain. Fog.3 mph100%30.20 "Hg1 mi
5:03 am45 °FLight rain. Fog.No wind100%30.20 "Hg1 mi
4:30 am43 °FLight rain. Fog.No wind100%30.20 "Hg2 mi
4:03 am43 °FLight rain. Fog.No wind100%30.19 "Hg2 mi
2:56 am41 °FFog.No wind100%30.22 "Hg5 mi
2:17 am39 °FFog.No wind100%30.22 "Hg1 mi
1:56 am42 °FFog.5 mph100%30.23 "Hg5 mi
1:08 am41 °FFog.3 mph100%30.23 "Hg1 mi
12:56 am41 °FFog.No wind100%30.25 "Hg2 mi
12:36 am41 °FFog.3 mph93%30.24 "Hg1 mi
12:06 am41 °FLight rain. Fog.3 mph93%30.23 "Hg4 mi
11:07 pm
Mon, Feb 19
39 °FLight rain. Low clouds.5 mph100%30.24 "Hg8 mi
10:56 pm41 °FLight rain. Low clouds.6 mph96%30.26 "Hg8 mi
10:18 pm39 °FMostly cloudy.8 mph100%30.25 "Hg10 mi
9:56 pm40 °FLight rain. Passing clouds.5 mph97%30.27 "Hg10 mi
8:56 pm40 °FLight rain. Mostly cloudy.8 mph93%30.28 "Hg10 mi
7:56 pm40 °FLight rain. Overcast.5 mph86%30.31 "Hg10 mi
6:56 pm42 °FLight rain. Overcast.3 mph73%30.31 "Hg10 mi
5:56 pm42 °FOvercast.5 mph68%30.33 "Hg10 mi
4:56 pm43 °FOvercast.No wind65%30.35 "Hg10 mi
3:56 pm45 °FMore clouds than sun.5 mph58%30.36 "Hg10 mi
2:56 pm45 °FPassing clouds.7 mph56%30.37 "Hg10 mi
1:56 pm44 °FScattered clouds.8 mph55%30.40 "Hg10 mi
12:56 pm43 °FSunny.12 mph51%30.41 "Hg10 mi
11:56 am41 °FSunny.12 mph53%30.45 "Hg10 mi
10:56 am39 °FSunny.12 mph55%30.51 "Hg10 mi
9:56 am36 °FSunny.8 mph57%30.54 "Hg10 mi
8:56 am34 °FSunny.3 mph64%30.53 "Hg10 mi
7:56 am19 °FSunny.3 mph88%30.53 "Hg10 mi
6:56 am7 °FSunny.No wind91%30.55 "Hg10 mi
Weather by CustomWeather, © 2018

See weather overview